Simultaneous Nadir Overpasses (SNOs) Predictions

Prediction of SNOs between AQUA and METOP-A Satellite Orbit:

Table of predicted SNOs for the next 14.0 days since TLE Epoch: 3/16/2017
Index Date (AQUA) Time (AQUA) Lat,Lon (AQUA) SZA (AQUA ) Date (METOP-A) Time (METOP-A) Lat,Lon (METOP-A) SZA (METOP-A ) Distance(km) Time Diff (sec)
1 03/19/2017 12:32:01 -73.81, 166.29 105.78 03/19/2017 12:30:48 -73.82, 166.24 105.76 1.68 73
2 03/19/2017 13:21:30 73.90, -26.28 74.31 03/19/2017 13:21:26 73.90, -26.23 74.31 1.45 4
3 03/19/2017 14:10:57 -73.96, 141.24 105.65 03/19/2017 14:12:07 -73.95, 141.21 105.67 1.70 70
4 03/22/2017 08:06:20 -73.82,-127.32 106.88 03/22/2017 08:05:10 -73.84,-127.31 106.86 1.28 70
5 03/22/2017 08:55:49 73.92, 40.10 73.21 03/22/2017 08:55:48 73.91, 40.20 73.20 3.31 1
6 03/22/2017 09:45:16 -73.97,-152.37 106.75 03/22/2017 09:46:29 -73.96,-152.34 106.77 1.14 73
7 03/25/2017 03:40:39 -73.85, -60.95 107.97 03/25/2017 03:39:32 -73.85, -60.87 107.96 2.45 67
8 03/25/2017 04:30:07 73.90, 106.58 72.07 03/25/2017 04:30:10 73.92, 106.63 72.09 3.12 3
9 03/25/2017 05:19:37 -74.10, -86.23 107.73 03/25/2017 05:20:49 -74.08, -85.66 107.78 17.60 72
10 03/27/2017 23:14:56 -73.83, 5.52 109.10 03/27/2017 23:13:54 -73.82, 5.45 109.10 2.58 62
11 03/28/2017 00:04:24 73.88, 173.04 70.94 03/28/2017 00:04:32 73.88, 172.94 70.95 3.02 8
12 03/28/2017 00:53:57 -74.23, -20.12 108.70 03/28/2017 00:55:07 -74.24, -18.85 108.74 38.31 70
13 03/30/2017 18:49:14 -73.82, 71.97 110.22 03/30/2017 18:48:16 -73.83, 71.88 110.20 2.83 58
14 03/30/2017 19:38:42 73.88,-120.52 69.84 03/30/2017 19:38:54 73.89,-120.64 69.85 3.77 12




NCC Satellite Simultaneous Nadir Overpasses (SNOs) Prediction Service
